Location: ?????
(38.3715°N, 23.0573°E)
Time: 10:51:03
(UTC+00:00)

Exosat Rocket - Pass Details

Date: 03 August 2024
Orbit: 761 x 2513 km, 72.3° (Epoch: 18 September)

Event Time Altitude Azimuth Distance (km) Brightness Sun altitude
Rises 20:30:14 0° 335° (NNW) 3,237 8.0 -27.3°
Reaches altitude 10° 20:32:32 10° 331° (NNW) 2,300 6.9 -27.6°
Maximum altitude 20:37:27 61° 252° (WSW) 916 3.8 -28.1°
Enters shadow 20:37:28 61° 251° (WSW) 917 3.8 -28.1°
